QPF
0.00 0.00 0.00 0.00 0.00 0.00 0.00 0.00 0.00 0.00 0.00 0.01 0.00 0.00 0.00 0.00 0.00 0.00 0.00 0.02 0.00 0.00 0.00 0.00 0.00 0.00 0.00 0.00 0.00 0.00 0.00 0.00 0.00 0.00 0.00 0.00 0.00 0.00
0.00 0.01 0.01 0.00 0.00 0.00 0.00 0.00 0.00 0.00 0.00 0.00 0.00 0.01 0.00 0.00 0.00 0.00 0.00 0.00 0.00 0.00 0.00 0.00 0.00 0.00 0.00 0.00 0.00 0.00 0.00 0.00 0.00 0.00 0.00 0.00 0.00 0.00
0.02 0.07 0.06 0.00 0.00 0.00 0.00 0.00 0.00 0.01 0.03 0.00 0.00 0.00 0.00 0.00 0.00 0.00 0.00 0.00 0.00 0.00 0.00 0.00 0.00 0.00 0.00 0.00 0.00 0.00 0.00 0.00 0.00 0.00 0.00 0.00 0.00 0.00
0.05 0.04 0.00 0.01 0.02 0.00 0.00 0.00 0.00 0.03 0.03 0.02 0.00 0.00 0.00 0.00 0.00 0.00 0.00 0.00 0.00 0.00 0.00 0.00 0.00 0.00 0.00 0.00 0.00 0.00 0.00 0.03 0.03 0.01 0.00 0.00 0.00 0.00
0.01 0.03 0.00 0.01 0.08 0.01 0.01 0.00 0.00 0.00 0.04 0.04 0.01 0.00 0.00 0.00 0.00 0.03 0.05 0.00 0.00 0.00 0.00 0.00 0.00 0.00 0.00 0.00 0.00 0.00 0.00 0.04 0.07 0.09 0.05 0.06 0.03 0.00
0.00 0.00 0.00 0.01 0.04 0.05 0.03 0.05 0.02 0.02 0.00 0.01 0.00 0.00 0.00 0.00 0.03 0.09 0.07 0.01 0.00 0.00 0.00 0.00 0.00 0.00 0.00 0.00 0.00 0.00 0.00 0.00 0.04 0.10 0.12 0.08 0.04 0.01
0.01 0.00 0.00 0.00 0.00 0.02 0.01 0.02 0.04 0.04 0.03 0.03 0.02 0.00 0.00 0.05 0.10 0.15 0.12 0.05 0.02 0.00 0.00 0.01 0.02 0.01 0.00 0.00 0.00 0.00 0.00 0.00 0.01 0.05 0.06 0.04 0.02 0.01
0.02 0.00 0.00 0.00 0.00 0.00 0.04 0.05 0.01 0.03 0.03 0.06 0.05 0.06 0.05 0.10 0.15 0.18 0.18 0.23 0.08 0.01 0.09 0.03 0.03 0.03 0.00 0.00 0.00 0.00 0.00 0.00 0.00 0.00 0.00 0.00 0.00 0.01
0.00 0.00 0.00 0.00 0.03 0.03 0.06 0.19 0.08 0.00 0.00 0.01 0.02 0.04 0.06 0.07 0.09 0.09 0.07 0.09 0.09 0.04 0.09 0.03 0.00 0.01 0.02 0.01 0.00 0.00 0.00 0.00 0.00 0.00 0.00 0.00 0.01 0.01
0.00 0.00 0.00 0.01 0.08 0.02 0.03 0.01 0.00 0.00 0.01 0.00 0.00 0.00 0.01 0.01 0.01 0.01 0.00 0.00 0.00 0.00 0.00 0.01 0.00 0.01 0.01 0.00 0.00 0.00 0.00 0.00 0.00 0.00 0.00 0.01 0.01 0.00
0.00 0.00 0.00 0.00 0.01 0.04 0.02 0.00 0.00 0.00 0.00 0.00 0.00 0.00 0.00 0.00 0.00 0.00 0.00 0.00 0.00 0.00 0.00 0.00 0.00 0.00 0.00 0.00 0.00 0.00 0.00 0.00 0.00 0.00 0.01 0.00 0.00 0.00
0.00 0.01 0.01 0.06 0.06 0.06 0.01 0.00 0.00 0.00 0.00 0.00 0.00 0.00 0.00 0.00 0.00 0.00 0.00 0.00 0.00 0.00 0.00 0.00 0.01 0.00 0.00 0.00 0.00 0.00 0.00 0.00 0.00 0.00 0.00 0.00 0.00 0.00
0.05 0.04 0.02 0.09 0.06 0.00 0.00 0.00 0.00 0.00 0.00 0.00 0.00 0.00 0.00 0.00 0.00 0.00 0.00 0.00 0.00 0.00 0.00 0.00 0.04 0.01 0.02 0.00 0.00 0.00 0.00 0.00 0.00 0.00 0.00 0.00 0.00 0.00
0.13 0.12 0.07 0.04 0.00 0.00 0.00 0.00 0.00 0.00 0.00 0.00 0.00 0.00 0.00 0.00 0.00 0.00 0.00 0.01 0.01 0.02 0.01 0.01 0.04 0.04 0.01 0.00 0.00 0.00 0.00 0.00 0.00 0.00 0.00 0.00 0.00 0.00
0.09 0.03 0.01 0.00 0.00 0.00 0.00 0.00 0.00 0.00 0.00 0.00 0.00 0.00 0.00 0.00 0.00 0.00 0.01 0.01 0.01 0.00 0.00 0.00 0.01 0.02 0.01 0.00 0.00 0.00 0.00 0.00 0.00 0.00 0.00 0.00 0.00 0.00
0.00 0.00 0.00 0.00 0.00 0.00 0.00 0.00 0.00 0.00 0.00 0.00 0.00 0.00 0.00 0.00 0.00 0.00 0.00 0.01 0.01 0.00 0.00 0.00 0.00 0.00 0.00 0.00 0.00 0.00 0.00 0.00 0.00 0.00 0.00 0.00 0.00 0.00
0.00 0.00 0.00 0.00 0.00 0.00 0.00 0.00 0.00 0.00 0.00 0.00 0.00 0.00 0.00 0.00 0.00 0.00 0.00 0.01 0.01 0.00 0.00 0.00 0.00 0.00 0.00 0.00 0.00 0.00 0.00 0.00 0.00 0.00 0.00 0.00 0.00 0.00
0.00 0.00 0.00 0.00 0.00 0.00 0.00 0.00 0.00 0.00 0.00 0.00 0.00 0.00 0.00 0.00 0.00 0.00 0.00 0.00 0.00 0.00 0.00 0.00 0.00 0.00 0.00 0.00 0.00 0.00 0.00 0.00 0.00 0.00 0.00 0.00 0.00 0.00
0.00 0.00 0.00 0.00 0.00 0.00 0.00 0.00 0.00 0.00 0.00 0.00 0.00 0.00 0.00 0.00 0.00 0.00 0.00 0.00 0.00 0.00 0.00 0.00 0.00 0.00 0.00 0.00 0.00 0.00 0.00 0.00 0.00 0.00 0.00 0.00 0.00 0.00
0.00 0.00 0.00 0.00 0.00 0.00 0.00 0.00 0.00 0.00 0.00 0.00 0.00 0.00 0.00 0.00 0.00 0.00 0.00 0.00 0.00 0.00 0.00 0.00 0.00 0.00 0.00 0.00 0.00 0.00 0.00 0.00 0.00 0.00 0.00 0.00 0.00 0.00
0.00 0.00 0.00 0.00 0.00 0.00 0.00 0.00 0.00 0.00 0.00 0.00 0.00 0.00 0.00 0.00 0.00 0.00 0.00 0.00 0.00 0.00 0.00 0.00 0.00 0.00 0.00 0.00 0.00 0.00 0.00 0.00 0.00 0.00 0.00 0.00 0.00 0.00
0.00 0.00 0.00 0.00 0.00 0.00 0.00 0.00 0.00 0.00 0.00 0.00 0.00 0.00 0.00 0.00 0.00 0.00 0.00 0.00 0.00 0.00 0.00 0.00 0.00 0.00 0.00 0.00 0.00 0.00 0.00 0.00 0.00 0.00 0.00 0.00 0.00 0.00
0.00 0.00 0.00 0.00 0.00 0.00 0.00 0.00 0.00 0.00 0.00 0.00 0.00 0.00 0.00 0.00 0.00 0.00 0.00 0.00 0.00 0.00 0.00 0.00 0.00 0.00 0.00 0.00 0.00 0.00 0.00 0.00 0.00 0.00 0.00 0.00 0.00 0.00
MSLP
1016.48 1016.67 1016.77 1016.13 1015.29 1014.93 1014.94 1014.94 1014.99 1014.88 1014.92 1015.08 1014.71 1013.94 1013.87 1014.15 1014.92 1014.84 1014.96 1015.52 1015.81 1016.05 1016.32 1016.54 1016.73 1016.87 1017.03 1017.21 1017.45 1017.64 1017.87 1018.08 1018.29 1018.45 1018.60 1018.80 1018.93 1019.00
1016.33 1016.43 1016.49 1015.87 1015.46 1014.98 1014.85 1014.85 1015.01 1015.41 1014.81 1014.31 1014.17 1014.31 1014.45 1014.03 1014.54 1014.77 1014.75 1015.20 1015.50 1015.58 1015.79 1016.03 1016.25 1016.46 1016.64 1016.84 1017.03 1017.26 1017.49 1017.65 1017.87 1018.14 1018.40 1018.56 1018.73 1018.84
1016.28 1016.34 1016.37 1016.09 1016.04 1015.43 1015.00 1015.17 1015.10 1015.00 1015.24 1015.01 1014.65 1014.30 1014.15 1014.40 1014.50 1014.63 1014.40 1014.23 1013.92 1014.41 1014.80 1015.25 1015.61 1015.87 1016.09 1016.31 1016.52 1016.70 1016.97 1017.26 1017.56 1017.79 1018.06 1018.29 1018.52 1018.76
1015.78 1015.83 1015.59 1015.35 1015.94 1015.88 1015.69 1015.56 1015.30 1015.20 1015.47 1015.27 1015.05 1014.61 1014.38 1014.27 1014.07 1014.16 1014.14 1013.60 1013.33 1013.51 1014.25 1014.77 1015.15 1015.37 1015.61 1015.84 1015.98 1016.16 1016.45 1016.80 1017.17 1017.41 1017.67 1017.94 1018.22 1018.45
1014.83 1014.99 1014.86 1015.11 1015.58 1015.34 1015.58 1015.20 1014.81 1015.03 1015.11 1015.02 1014.68 1014.25 1013.49 1013.40 1013.42 1013.74 1013.98 1013.86 1013.37 1013.50 1014.06 1014.38 1014.62 1014.86 1015.20 1015.54 1015.77 1015.83 1016.02 1016.36 1016.70 1017.08 1017.39 1017.72 1018.03 1018.38
1014.46 1014.29 1014.35 1014.62 1014.89 1015.24 1015.38 1015.43 1015.32 1015.15 1014.82 1014.48 1014.21 1013.87 1013.31 1012.71 1012.93 1013.06 1013.70 1013.72 1013.26 1012.20 1012.49 1012.78 1013.50 1014.02 1014.37 1014.79 1015.28 1015.60 1015.80 1015.98 1016.23 1016.69 1017.16 1017.58 1017.86 1018.17
1013.89 1013.93 1013.94 1014.18 1014.45 1014.81 1014.98 1014.79 1015.00 1015.10 1014.73 1014.50 1014.24 1014.09 1013.31 1013.35 1013.70 1013.32 1013.69 1013.54 1012.78 1011.93 1011.84 1012.47 1012.83 1013.09 1013.53 1014.16 1014.12 1014.61 1015.15 1015.54 1015.87 1016.22 1016.81 1017.43 1017.74 1018.11
1013.85 1013.74 1013.55 1013.67 1013.92 1014.17 1014.43 1014.64 1015.05 1015.27 1015.12 1015.03 1014.55 1014.36 1014.04 1013.84 1013.85 1013.79 1013.80 1013.80 1013.16 1012.03 1012.03 1012.15 1011.99 1012.67 1012.27 1012.46 1012.80 1013.49 1014.36 1015.05 1015.42 1015.79 1016.34 1016.94 1017.49 1017.99
1012.69 1012.79 1012.89 1012.72 1012.98 1013.34 1014.02 1014.42 1014.91 1015.00 1015.15 1015.12 1014.89 1014.60 1014.41 1014.40 1014.15 1013.91 1013.60 1013.46 1013.06 1012.78 1012.60 1012.16 1011.70 1011.40 1011.56 1012.54 1013.25 1013.69 1014.26 1014.58 1015.13 1015.37 1016.08 1016.76 1017.32 1017.88
1012.47 1012.58 1012.70 1012.84 1013.11 1013.48 1013.64 1013.73 1013.78 1013.81 1014.26 1014.50 1014.34 1014.35 1014.66 1014.82 1014.93 1014.45 1013.99 1013.47 1012.94 1012.39 1012.23 1011.66 1011.47 1011.16 1012.08 1012.98 1013.70 1013.98 1014.29 1014.48 1014.98 1015.30 1015.85 1016.46 1017.11 1017.79
1012.02 1012.18 1012.32 1012.55 1013.34 1013.56 1013.80 1013.81 1013.77 1013.47 1013.28 1013.69 1014.10 1014.39 1014.58 1014.65 1014.95 1014.89 1013.83 1013.28 1012.07 1011.27 1010.94 1010.77 1010.74 1012.04 1013.09 1013.70 1014.02 1014.31 1014.42 1014.52 1014.87 1015.27 1015.81 1016.38 1017.07 1017.76
1011.25 1011.51 1012.24 1012.81 1013.62 1014.01 1014.20 1014.04 1013.67 1013.25 1013.00 1013.10 1013.50 1013.83 1013.91 1013.91 1014.36 1014.42 1013.88 1013.04 1012.18 1011.22 1010.71 1010.53 1010.90 1012.16 1013.36 1014.18 1014.53 1014.52 1014.63 1014.94 1015.16 1015.57 1016.02 1016.57 1017.20 1017.85
1010.12 1010.91 1011.67 1012.73 1013.40 1013.75 1014.00 1014.00 1013.87 1014.29 1013.69 1013.34 1013.14 1012.79 1012.21 1012.13 1012.56 1013.32 1013.28 1013.19 1012.52 1011.58 1011.24 1011.71 1011.34 1011.64 1012.25 1014.12 1014.87 1015.00 1015.00 1015.34 1015.68 1016.09 1016.39 1016.88 1017.10 1017.49
1010.01 1010.54 1010.91 1011.20 1012.65 1013.32 1013.78 1013.64 1013.88 1014.13 1013.55 1013.01 1012.29 1012.36 1012.24 1012.27 1012.29 1012.44 1012.52 1012.63 1012.59 1012.36 1012.10 1012.21 1012.24 1012.18 1012.01 1013.74 1014.71 1015.29 1015.53 1015.59 1015.78 1016.22 1016.67 1017.24 1017.37 1017.73
1009.52 1009.98 1010.82 1011.29 1011.60 1012.86 1012.90 1013.28 1013.64 1013.54 1013.01 1012.69 1012.71 1012.55 1012.31 1012.02 1012.28 1012.31 1012.19 1012.21 1012.11 1012.15 1012.27 1012.41 1012.69 1012.57 1012.51 1012.63 1014.12 1014.93 1015.55 1016.00 1016.06 1016.37 1016.65 1017.36 1017.45 1017.85
1010.69 1010.97 1011.18 1010.75 1010.64 1011.72 1012.13 1012.70 1012.70 1012.35 1012.58 1012.55 1012.41 1012.49 1012.14 1012.13 1012.16 1012.31 1012.47 1012.12 1012.25 1012.15 1012.33 1012.58 1012.66 1012.63 1012.69 1012.79 1013.21 1014.51 1015.12 1015.56 1016.10 1016.51 1016.79 1017.40 1017.77 1017.87
1010.22 1010.47 1010.40 1010.36 1009.90 1010.32 1010.60 1010.93 1011.85 1011.98 1012.17 1012.09 1012.08 1012.18 1012.03 1012.16 1012.16 1012.42 1012.74 1012.61 1012.26 1012.23 1012.57 1012.93 1012.82 1012.54 1012.79 1013.12 1013.47 1014.08 1014.84 1015.30 1015.81 1016.26 1016.83 1017.37 1017.76 1017.79
1009.25 1009.10 1008.97 1008.83 1008.80 1009.27 1009.60 1009.80 1010.61 1011.41 1011.63 1011.64 1011.73 1011.79 1011.64 1011.72 1011.93 1012.18 1012.41 1012.56 1012.30 1012.43 1012.86 1013.12 1013.13 1013.01 1013.26 1013.44 1013.45 1013.83 1014.49 1015.09 1015.63 1016.23 1016.70 1017.05 1017.50 1017.61
1008.39 1008.38 1007.98 1007.89 1008.09 1008.52 1009.09 1009.38 1010.04 1010.86 1011.17 1010.99 1011.17 1011.36 1011.46 1011.44 1011.88 1011.89 1011.99 1012.38 1012.36 1012.51 1012.77 1013.05 1013.06 1012.97 1013.13 1013.41 1013.92 1013.89 1014.13 1014.55 1015.27 1016.13 1016.39 1016.55 1016.82 1017.25
1008.16 1007.46 1007.40 1007.58 1007.51 1007.99 1008.55 1009.02 1009.36 1010.22 1010.64 1010.84 1010.77 1010.82 1010.82 1011.26 1011.30 1011.52 1011.72 1011.76 1012.37 1012.68 1012.88 1012.91 1012.83 1012.84 1012.78 1012.90 1013.35 1013.85 1013.99 1014.39 1014.72 1015.45 1016.06 1016.49 1016.72 1017.11
1007.40 1006.80 1006.96 1007.09 1007.38 1007.66 1007.75 1008.19 1009.11 1009.73 1009.95 1010.10 1010.29 1010.36 1010.56 1010.70 1010.65 1010.97 1011.41 1011.86 1011.99 1012.12 1012.45 1012.58 1012.68 1012.76 1012.92 1012.95 1013.23 1013.77 1014.28 1014.28 1014.53 1014.91 1015.46 1016.06 1016.39 1017.03
1006.33 1005.84 1006.12 1006.59 1007.03 1007.36 1007.70 1007.96 1008.62 1008.97 1009.33 1009.44 1009.79 1010.23 1010.34 1010.40 1010.39 1010.64 1011.29 1011.55 1011.69 1011.82 1011.94 1012.08 1012.46 1012.61 1012.74 1012.58 1012.78 1013.44 1013.97 1014.48 1014.77 1014.92 1015.19 1015.34 1015.63 1016.09
1005.35 1005.36 1005.59 1006.03 1006.68 1007.27 1007.72 1007.40 1007.44 1007.91 1008.40 1009.04 1009.21 1009.81 1010.01 1010.18 1010.09 1010.35 1010.96 1011.36 1011.62 1011.92 1012.05 1012.02 1012.09 1012.25 1012.27 1012.37 1012.26 1013.12 1013.68 1014.26 1014.56 1014.90 1015.15 1015.24 1015.37 1015.38
Thickness
5783 5782 5779 5785 5793 5795 5794 5791 5781 5772 5774 5785 5786 5802 5801 5798 5793 5791 5790 5787 5785 5783 5781 5779 5776 5773 5771 5768 5765 5763 5760 5758 5756 5754 5752 5749 5747 5745
5781 5780 5779 5785 5787 5792 5792 5791 5787 5776 5772 5791 5794 5794 5796 5795 5791 5788 5788 5785 5783 5782 5781 5778 5776 5772 5769 5767 5764 5761 5758 5756 5754 5751 5748 5745 5743 5741
5777 5776 5774 5779 5778 5783 5788 5785 5783 5783 5771 5778 5787 5792 5792 5789 5787 5784 5785 5786 5789 5787 5783 5779 5776 5772 5769 5766 5763 5761 5758 5754 5750 5747 5745 5742 5739 5735
5775 5775 5777 5782 5775 5776 5777 5776 5777 5779 5771 5766 5774 5779 5783 5787 5788 5785 5782 5786 5788 5789 5782 5778 5774 5771 5768 5765 5762 5760 5756 5752 5748 5745 5742 5738 5735 5733
5781 5779 5781 5780 5773 5776 5774 5776 5780 5778 5775 5771 5771 5780 5785 5788 5787 5784 5779 5779 5781 5783 5778 5775 5773 5770 5766 5762 5759 5756 5753 5750 5746 5741 5738 5733 5728 5726
5781 5782 5782 5780 5776 5773 5771 5770 5771 5770 5773 5773 5773 5775 5780 5786 5783 5776 5769 5772 5774 5784 5782 5780 5774 5770 5766 5762 5756 5752 5749 5747 5744 5738 5733 5728 5725 5722
5781 5781 5781 5780 5778 5774 5772 5772 5770 5766 5768 5766 5766 5766 5770 5766 5762 5770 5762 5762 5769 5780 5780 5777 5774 5769 5764 5760 5758 5754 5748 5744 5740 5736 5729 5723 5720 5716
5773 5776 5780 5779 5777 5774 5772 5769 5765 5761 5759 5757 5759 5756 5757 5758 5758 5755 5754 5749 5748 5770 5768 5766 5770 5764 5767 5768 5762 5754 5748 5742 5738 5734 5728 5721 5716 5711
5780 5779 5779 5783 5781 5779 5769 5764 5758 5756 5753 5751 5749 5749 5749 5748 5749 5747 5747 5746 5748 5755 5754 5755 5765 5764 5766 5759 5753 5747 5742 5739 5733 5730 5723 5717 5711 5706
5777 5777 5776 5775 5774 5769 5766 5765 5763 5762 5755 5749 5748 5746 5742 5737 5732 5731 5733 5737 5746 5751 5751 5745 5757 5759 5756 5746 5742 5738 5734 5731 5727 5724 5718 5712 5705 5699
5778 5776 5775 5771 5763 5759 5758 5755 5754 5755 5754 5749 5743 5738 5734 5729 5722 5717 5721 5726 5739 5747 5754 5750 5752 5743 5736 5733 5731 5728 5725 5723 5719 5715 5710 5705 5699 5692
5779 5777 5769 5764 5755 5750 5748 5747 5746 5747 5748 5745 5742 5734 5730 5727 5720 5715 5719 5723 5729 5736 5745 5744 5742 5735 5725 5720 5718 5717 5715 5711 5708 5704 5700 5696 5691 5683
5781 5774 5769 5758 5751 5747 5743 5743 5740 5733 5734 5734 5733 5733 5734 5734 5729 5720 5718 5717 5720 5726 5732 5728 5732 5730 5728 5712 5705 5703 5702 5699 5695 5691 5689 5685 5682 5677
5772 5771 5769 5764 5751 5742 5738 5738 5732 5726 5729 5728 5729 5724 5722 5722 5722 5721 5718 5715 5713 5714 5715 5714 5713 5714 5719 5704 5697 5690 5687 5686 5684 5680 5677 5673 5670 5666
5773 5767 5757 5753 5752 5738 5735 5732 5726 5726 5726 5722 5715 5715 5717 5720 5716 5714 5712 5711 5711 5708 5705 5702 5700 5701 5703 5705 5688 5681 5676 5672 5671 5668 5665 5660 5660 5657
5749 5745 5742 5745 5744 5738 5735 5728 5728 5729 5721 5716 5713 5711 5715 5713 5710 5706 5701 5703 5700 5699 5696 5693 5690 5691 5690 5692 5686 5674 5669 5666 5660 5656 5654 5649 5647 5647
5744 5738 5733 5729 5739 5738 5738 5735 5726 5723 5717 5715 5713 5709 5709 5706 5704 5699 5692 5692 5693 5691 5687 5682 5682 5682 5681 5678 5674 5668 5661 5657 5652 5648 5644 5641 5639 5639
5739 5732 5732 5736 5737 5736 5735 5735 5728 5718 5716 5713 5711 5708 5708 5705 5700 5695 5690 5686 5687 5684 5678 5673 5672 5672 5668 5665 5665 5661 5655 5650 5644 5639 5637 5636 5633 5633
5731 5720 5726 5735 5738 5735 5730 5729 5723 5717 5714 5715 5713 5709 5705 5704 5696 5693 5690 5683 5681 5677 5673 5668 5667 5666 5663 5660 5654 5653 5650 5646 5641 5634 5633 5633 5632 5628
5725 5729 5730 5733 5737 5732 5727 5723 5723 5716 5710 5709 5710 5708 5706 5699 5697 5692 5688 5686 5677 5671 5667 5665 5663 5661 5660 5657 5652 5648 5645 5641 5639 5633 5629 5627 5626 5623
5725 5731 5733 5733 5729 5728 5729 5726 5718 5712 5711 5709 5707 5706 5702 5699 5697 5692 5685 5676 5675 5673 5666 5662 5660 5655 5651 5649 5646 5641 5636 5635 5633 5631 5627 5624 5623 5619
5730 5736 5733 5731 5727 5723 5721 5721 5716 5714 5711 5710 5704 5698 5696 5694 5692 5688 5679 5674 5672 5670 5666 5662 5657 5653 5649 5649 5646 5637 5632 5628 5625 5624 5623 5623 5622 5619
5729 5733 5731 5727 5722 5717 5713 5717 5718 5716 5713 5706 5704 5694 5692 5688 5688 5684 5675 5669 5665 5660 5658 5656 5654 5650 5648 5646 5646 5637 5630 5625 5623 5620 5618 5618 5618 5618